Tracking 18917 objects as of 16-Jan-2018
HD Live streaming from Space Station
objects crossing your sky now

CICERO 6

Track CICERO 6 now!
10-day predictions


NORAD ID: 42793
Int'l Code: 2017-036AE
Perigee: 501.9 km
Apogee: 514.4 km
Inclination: 97.4 °
Period: 94.6 minutes
Semi major axis: 6879 km
RCS: Unknown
Launch date: June 23, 2017
Source: United States (US)
Launch site: SRIHARIKOTA (SRI)
aabbcc
Your satellite tracking list
Your tracking list is empty




NASA's NSSDC Master Catalog

Two Line Element Set (TLE):
1 42793U 17036AE  18015.41277868  .00000849  00000-0  40722-4 0  9990
2 42793  97.4229  77.6512 0009081 251.1463 108.8789 15.21587650 31362
Source of the keplerian elements: AFSPC